Regional Weather Roundup
Issued by NWS

Home | Current Version | Previous Version | Graphics & Text | Print | Product List | Glossary On
Versions: 1 2 3 4 5 6 7 8 9 10 11 12 13 14 15 16 17 18 19 20 21 22 23 24 25 26 27 28 29 30 31 32 33 34 35 36 37 38 39 40 41 42 43 44 45 46 47 48 49 50
595
ASUS45 KBOU 210507
RWRCO

WEATHER ROUNDUP FOR COLORADO
NATIONAL WEATHER SERVICE DENVER/BOULDER CO
1000 PM MST FRI JAN 20 2017

NOTE: "FAIR" INDICATES FEW OR NO CLOUDS BELOW 12000 FEET WITH NO
SIGNIFICANT WEATHER AND/OR OBSTRUCTIONS TO VISIBILITY.

COZ001>005-013-030-031-210600-
...NORTHWEST COLORADO...

CITY           SKY/WX    TMP DP  RH WIND       PRES   REMARKS
CRAIG          FAIR      20  16  84 E3        29.45F
HAYDEN         FAIR      19  16  86 E13       29.44F WCI   7
MEEKER         FAIR      18  15  88 NE3       29.44S
MOUNT WERNER   NOT AVBL
STEAMBOAT SPGS MOCLDY    18  16  92 SE7       29.44F WCI   8
WALDEN           N/A     19  12  73 SE10      29.44F WCI   8
$$

COZ006>008-011-210600-
...WEST CENTRAL VALLEYS...

CITY           SKY/WX    TMP DP  RH WIND       PRES   REMARKS
GRAND JUNCTION CLOUDY    34  31  88 E8        29.46S WCI  27
MONTROSE       MOCLDY    32  22  66 SE7       29.51S WCI  26
EAGLE          CLOUDY    19  16  86 CALM      29.51F
RIFLE          FAIR      28  26  92 CALM      29.48S
DELTA          CLOUDY    35  29  79 N10       29.51S WCI  27
NUCLA          CLOUDY    34  27  75 E5        29.52F WCI  30
$$

COZ017>023-064>068-210600-
...SOUTHWEST COLORADO...

CITY           SKY/WX    TMP DP  RH WIND       PRES   REMARKS
DURANGO        LGT SNOW  27  24  89 NE8       29.56F FOG     WCI  19
CORTEZ         LGT SNOW  31  30  96 CALM      29.52F FOG
PAGOSA SPRINGS LGT SNOW  26  25  99 CALM      29.58F
TELLURIDE      CLOUDY    24  16  69 E3        29.51S
WOLF CREEK PAS CLOUDY    10   9  92 S21G31    29.53F WCI  -9
$$

COZ009-010-012-014-032>034-037-058>063-210600-
...CENTRAL COLORADO...

CITY           SKY/WX    TMP DP  RH WIND       PRES   REMARKS
ASPEN          FAIR      14  12  92 S5        29.45F WCI   6
BUENA VISTA    FAIR      20   9  63 CALM      29.49S
COPPER MTN     FAIR      14   9  79 MISG      29.44F
BERTHOUD PASS  NOT AVBL
COTTONWOOD PAS FAIR      23   7  50 W3        29.46F
GUNNISON       FAIR       7   5  91 CALM      29.54F
KREMMLING      FOG       19  18  93 CALM      29.48F VSB 1
LEADVILLE      FAIR       4   0  83 VRB3      29.44F
MONARCH PASS   MOCLDY     9   5  85 W8G25     29.55F WCI  -4
SALIDA         FAIR      28  15  58 SW9       29.57S WCI  19
SUNLIGHT       FOG       12   9  85 MISG      29.48S VSB 1/2
WILKERSON PASS FAIR      10   5  79 SW16G23   29.44F WCI  -7
$$

COZ069>075-210600-
...SAN LUIS VALLEY/SANGRE DE CRISTO MOUNTAINS...

CITY           SKY/WX    TMP DP  RH WIND       PRES   REMARKS
ALAMOSA        FAIR      18  12  77 SW5       29.55S WCI  11
LA VETA PASS   FAIR      18  12  79 NE25G44   29.47S WCI  -1
SAGUACHE       MOCLDY    14  12  92 CALM      29.56S
$$

COZ035-036-038>040-210600-
...NORTHERN COLORADO FRONT RANGE...

CITY           SKY/WX    TMP DP  RH WIND       PRES   REMARKS
DENVER INTL AP FAIR      26  23  88 SE10      29.41F WCI  16
DMNS CITY PARK   N/A     33  26  75 SE8       29.42S WCI  27
AURORA         PTCLDY    31  27  84 S9        29.42F WCI  23
FRONT RANGE AP NOT AVBL
ERIE MUNI ARPT FAIR      28  26  89 CALM      29.41S
BOULDER MUN AP FAIR      32  27  80 SW3       29.41S
CENTENNIAL     FAIR      29  25  85 S8        29.42F WCI  21
BROOMFIELD     PTCLDY    39  12  33 W16       29.41F
FORT COLLINS   FAIR      30  27  86 E5        29.43S WCI  25
LONGMONT       FAIR      32  26  78 SW6       29.43S WCI  26
$$

COZ041-046-047-076>085-087-088-210600-
...PIKES PEAK/PALMER DIVIDE AND SOUTHERN FOOTHILLS...

CITY           SKY/WX    TMP DP  RH WIND       PRES   REMARKS
COLO. SPRINGS  CLOUDY    30  28  92 CALM      29.47R FOG
A. F. ACADEMY  MOCLDY    26  25  96 CALM      29.44S
SCHRIEVER AFB  NOT AVBL
ELLICOTT       FAIR     N/A N/A N/A SW6       29.45S
FALCON         FAIR      25  25  99 W6        29.46R WCI  18
FORT CARSON    CLOUDY    31  29  92 CALM      29.44F
LIMON          FAIR      20  19  96 N3        29.46R
MONUMENT HILL  FAIR      27  18  69 SW10      29.45S WCI  17
TRINIDAD       FAIR      30  13  49 NW9       29.47S WCI  22
$$

COZ042>045-048>051-090-091-210600-
...NORTHEAST COLORADO...

CITY           SKY/WX    TMP DP  RH WIND       PRES   REMARKS
GREELEY ARPT   FAIR      29  24  82 SE6       29.44  WCI  23
AKRON          FAIR      28  22  78 SW9       29.44S WCI  19
BURLINGTON     FAIR      32  30  92 W9        29.47S WCI  24
WRAY           NOT AVBL
STERLING       FAIR      30  28  93 SW6       29.43R WCI  24
HOLYOKE        FAIR      36  32  87 N5        29.42F
FORT MORGAN    FAIR      29  26  90 CALM      29.45S
$$

COZ086-089-092>099-210600-
...SOUTHEAST COLORADO...

CITY           SKY/WX    TMP DP  RH WIND       PRES   REMARKS
PUEBLO         CLOUDY    29  26  89 CALM      29.47S FOG
LA JUNTA       FAIR      26  20  77 W6        29.46S WCI  19
LAMAR          MOCLDY    23  20  88 E3        29.47S FOG
SPRINGFIELD      N/A     28  27  96 W5        29.50R WCI  23
$$




USA.gov is the U.S. government's official web portal to all federal, state and local government web resources and services.